星链-3548 (STARLINK-3548 )

导读 | 豆包AI

STARLINK-3548是由美国于2022年3月3日发射的星链系列卫星,隶属于SpaceX公司的星链互联网星座项目,该项目旨在为全球提供低延迟、高速率的宽带互联网覆盖。作为星链组网的组成单元,它在近地轨道运行,支撑星座全球互联网络服务的搭建,是美国低轨卫星互联网建设的一部分。

基本信息
目录编号:
51864
目录名称:
STARLINK-3548
国际标识:
2022-022N
轨道中心:
EARTH
卫星名称:
星链-3548
卫星全名:
星链-3548 (STARLINK-3548 )
卫星状态:
在轨 (已飞行1520 天)
发射日期:
2022-03-03 UTC
国别 :
美国 (US)
星等 :
--
轨道信息
数据来源 国际轨道数据
星历时间: 2026-04-30T15:27:58+0800
17小时前
查看轨道信息
半长轴: 6917.878km
偏心率: 0.0001689
轨道倾角: 53.216°
近地点辐角 88.317°
升交点赤经 137.307°
平近点角 271.801°
近地点: 538.572km
远地点: 540.91km
周期: 95.438分钟
每日圈数: 15.088408
详细信息
固有亮度:
5
最大亮度:
2.5
卫星平台:
Starlink v1.5
覆盖范围:
全球
运营商:
太空探索技术公司
运营商所在国:
美国
制造商(研发单位):
太空探索技术公司
制造商所在国:
美国
使用方式:
暂无
卫星简介
星链(Starlink)计划是由太空探索技术公司(SpaceX)提出的一个巨型低轨卫星互联网星座项目,计划在2019年至2024年间在太空搭建由约1.2万颗卫星组成的“星链”网络,其中1584颗将部署在地球上空550千米处的近地轨道,并从2020年开始工作。该卫星仍在工作。
2D轨道图
3D轨道图
轨道高度分析图
轨道倾角分析图
轨道综合分析图
查看轨道综合分析图